Showing default

LEGION 2, 59626

Orbit data source: Space-Track

LEGION 2, 59626 is a payload satellite owned by Maxar Intel (US) in SSO that was launched on Thu, 02 May 2024 UTC via an FALCON 9 launch vehicle from the Air Force Western Test Range (AFWTR). Payloads include a variety of satellites, spacecraft, and rockets equipped with specific instruments for various scientific and technological missions. These include communications satellites like Starlink; space stations such as the ISS; scientific satellites like the Hubble; Earth observation satellites from companies like Planet Labs, Umbra, and HawkEye 360; GPS; miniature CubeSats for education and research; and military/defense satellites.

Loading next visibility...
LEGION 2 details
Identifier
59626, 2024-081B
Orbit
SSO
Last TLE update12 hours ago
Origin
Flag of USMaxar Intel (US)
ManufacturerMaxar Space Inf
MissionOperational spacecraft
Bus & MotorLEGION, Unknown motor
Mass~700 kg wet, 630 kg dry
Launch date (UTC)
2024-05-02 (8 months ago)
Launch vehicle
FALCON 9
Launch site
Air Force Western Test Range (AFWTR)
Object type
Payload
Rocket body
Debris
Shape & HBRUnknown
Radar Cross SectionLarge (>1 m²)

Expand to show TLE details & history

TLE from 12 hours ago
0 LEGION 2
1 59626U 24081B   24356.18976209  .00008146  00000-0  42209-3 0  9994
2 59626  97.5571  67.0358 0000809 165.8219 194.3037 15.16447662 35234
Epoch: 2024-12-21T04:33Z
Definitive object data (Epoch: 2024-12-21T04:33:15.444Z)
Latitude0.00001°
Longitude-91.52304°
Altitude520.209 km
Speed7.603 km/s
True Right ascension04h 28m 08s
True Declination0° 00' 00"
Sunlit
Object was in full shadow at TLE epoch
Visualization TLE readout
Latitude-29.33734°
Longitude84.72269°
Altitude527.244 km
Speed7.598 km/s
Apparent Right ascension18h 27m 15s
Apparent Declination-79° 08' 15"
Sunlit
Object is in daylight
Visualization observer readout
Local Sidereal Time15:36:05
Azimuth171.354° S
Elevation-31.608°
Doppler factor1
Orbital elements
Apogee altitude514.122 km
Perigee altitude513.007 km
Semi-major axis6,891.701 km
Eccentricity0.0000809
Inclination97.5571°
RAAN67.0358°
Arg. of periapsis165.8219°
True anomaly194.30141°
Mean anomaly194.3037°
Eccentric anomaly194.30255°
Mean motion3.79362 °/min
BSTAR0.00042209
Orbital period94.9 mins
Loading maneuver chart data...
Loading historical data...
Loading historical data...
Loading historical data...
Loading historical data...
Loading historical data...
Loading historical data...
Loading historical data...
Other satellites on launch #81 in the year 2024 (2024-05-02 UTC)

LEGION 2 Visibility forecast

Observer location: undefined°, undefined

Span
Click to sort rows by Start time (UTC) header in descending order
Start Az.
Max El. time (UTC)
Max El. Az.
Max El.
End time (UTC)
End Az.
7 mins2024-12-21 17:46:36.677Z13.751° NNE2024-12-21 17:50:36.677Z170.124° S43.518°2024-12-21 17:53:36.677Z190.387° SSW
5 mins2024-12-22 04:27:36.677Z123.095° SE2024-12-22 04:29:36.677Z71.198° E28.615°2024-12-22 04:32:36.677Z9.975° NNE
|